Tracking 19709 objects as of 17-Jun-2019
HD Live streaming from Space Station
objects crossing your sky now

COSMOS 1417

Track COSMOS 1417 now!
10-day predictions
COSMOS 1417 is classified as:


NORAD ID: 13617
Int'l Code: 1982-102A
Perigee: 962.0 km
Apogee: 1,013.1 km
Inclination: 83.0 °
Period: 104.7 minutes
Semi major axis: 7358 km
RCS: 2.4834 m2 (large)
Launch date: October 19, 1982
Source: Commonwealth of Independent States (former USSR) (CIS)
Launch site: PLESETSK MISSILE AND SPACE COMPLEX (PKMTR)
aabbcc
Your satellite tracking list
Your tracking list is empty




NASA's NSSDC Master Catalog

Two Line Element Set (TLE):
1 13617U 82102A   19167.93445410 +.00000033 +00000-0 +18754-4 0  9990
2 13617 082.9674 348.0517 0034715 011.5419 096.5355 13.75358588839472
Source of the keplerian elements: AFSPC